Location: Hamilton
(37.7830°S, 175.2830°E)
Time: 10:09:56
(UTC+13:00)

Cosmos 2263 Rocket - Pass Details

Date: 24 January 2019
Orbit: 823 x 848 km, 71.0° (Epoch: 17 February)

Event Time Altitude Azimuth Distance (km) Brightness Sun altitude
Rises 23:21:21 0° 218° (SW) 3,411 6.7 -25.4°
Reaches altitude 10° 23:24:17 10° 231° (SW) 2,473 5.6 -25.7°
Maximum altitude 23:28:34 22° 281° (W) 1,748 4.0 -26.2°
Enters shadow 23:30:45 18° 311° (NW) 1,958 4.0 -26.4°
